Hourly Data Report for September 06, 2017

All times are specified in Local Standard Time (LST). Add 1 hour to adjust for Daylight Saving Time where and when it is observed.

PORT ALBERNI (AUT)
BRITISH COLUMBIA

49°18'59.700" N
124°55'36.600" W
76.20 m
1036B06
71475
WQC

Download Data

Hourly Data (September 2017)
Hourly Data Report for September 6, 2017
Temp Definition
°C
Dew Point Temp Definition
°C
Rel Hum Definition
%
Wind Dir Definition
10's deg

Wind Spd Definition
km/h
Visibility Definition
km
Stn Press Definition
kPa
Hmdx Definition


Wind Chill Definition


Weather Definition


TIME
00:00 17.5 14.6 83 33 10   100.46     LegendNANA
01:00 18.3 15.6 84 32 6   100.45     LegendNANA
02:00 17.5 15.1 86 6 16   100.48     LegendNANA
03:00 16.6 15.0 90 31 8   100.48     LegendNANA
04:00 15.7 14.4 92 8 17   100.48     LegendNANA
05:00 15.9 14.6 92 33 5   100.49     LegendNANA
06:00 15.0 13.9 93 31 3   100.51     LegendNANA
07:00 16.9 15.3 90 32 5   100.51     LegendNANA
08:00 18.4 15.3 82 32 2   100.53     LegendNANA
09:00 19.4 15.5 78 24 2   100.49     LegendNANA
10:00 22.5 15.0 63 21 2   100.46 26   LegendNANA
11:00 24.6 13.6 50 4 3   100.41 28   LegendNANA
12:00 27.1 13.1 42 10 8   100.35 30   LegendNANA
13:00 28.5 12.6 38 12 9   100.34 31   LegendNANA
14:00 29.7 13.4 37 12 9   100.30 33   LegendNANA
15:00 28.6 13.8 40 15 10   100.27 32   LegendNANA
16:00 25.5 14.7 51 12 17   100.26 29   LegendNANA
17:00 23.7 15.4 60 12 14   100.25 28   LegendNANA
18:00 23.2 15.5 62 10 18   100.31 27   LegendNANA
19:00 21.8 15.7 68 12 10   100.32 26   LegendNANA
20:00 21.5 15.5 68 9 6   100.42 26   LegendNANA
21:00 21.4 15.8 71 3 9   100.17 26   LegendNANA
22:00 19.7 15.6 77 11 5   100.36     LegendNANA
23:00 19.7 15.9 79 7 9   100.51     LegendNANA

Notes on Data Quality.

Legend

  • E = Estimated
  • M = Missing
  • NA = Not Available
  • ‡ = Partner data that is not subject to review by the National Climate Archives
Date modified: